Track ONEWEB-0112 now! 10-day predictions ONEWEB-0112 is classified as:
1 48051U 21025K 22186.68597939 .00000232 00000-0 60042-3 0 9995 2 48051 87.9062 246.6798 0002066 98.8458 261.2905 13.13471102 64233